Location: Amanico Ergina Village
(37.7824°N, 122.4366°W)
Time: 21:11:21
(UTC+00:00)

Cosmos 2228 - Pass Details

Date: 29 October 2020
Orbit: 590 x 617 km, 82.5° (Epoch: 24 November)

Event Time Altitude Azimuth Distance (km) Brightness Sun altitude
Rises 12:57:07 0° 348° (NNW) 2,881 6.3 -19.4°
Reaches altitude 10° 12:59:22 10° 344° (NNW) 1,976 5.4 -18.9°
Maximum altitude 13:03:39 56° 267° (W) 733 3.0 -18.1°
Drops below altitude 10° 13:07:56 10° 189° (S) 1,971 5.6 -17.3°
Sets 13:10:10 0° 185° (S) 2,873 6.5 -16.8°
